User: anonymous   Login
Location: Marcé
(47.5801°N, 0.3280°W)
Time: 19:11:21
(UTC+02:00)
Language:

deb Explorer IX - Orbit

View from above orbital plane
View from above orbital plane
View from above satellite
View from above satellite

Ground track
Ground track

The orbit data is extracted from the following two-line orbital elements,

1    85U 61004C   22145.86556352  .00010794  00000-0  21084-2 0  9996
2    85  38.7681   2.8331 0372808 187.5054 172.0004 14.26701104 31827
Epoch (UTC): 25 May 2022 20:46:24
Eccentricity: 0.0372808
inclination: 38.7681°
perigee height: 535 km
apogee height: 1070 km
right ascension of ascending node: 2.8331°
argument of perigee: 187.5054°
revolutions per day: 14.26701104
mean anomaly at epoch: 172.0004°
orbit number at epoch: 3182

The dashed part of the orbit path shows where the satellite is in the earth's shadow,  

DLR